{"data":{"norad_id":59780,"intl_designator":"2024-092H","name":"2024-092H","alt_names":[],"object_type":"PAYLOAD","status":"ACTIVE","operator":null,"country":"CIS","launch_date":"2024-05-16","launch_site_code":"PLMSC","launch_vehicle":null,"mission":null,"orbit_class":"UNKNOWN","rcs_meters":null,"size_class":null,"mass_kg":null,"dimensions":null,"purposes":[],"wikipedia_slug":null,"has_3d_model":false,"image_url":null,"decayed_at":null,"tle_current":{"epoch":"2026-05-25T05:37:23.290176Z","epoch_age_seconds":57987,"freshness":"FRESH","line1":"1 59780U 24092H   26145.23429734  .00000136  00000+0  67707-4 0  9998","line2":"2 59780  98.6671 264.2952 0011070 277.5689  82.4236 14.31836033105611","mean_motion":14.31836033,"eccentricity":0.001107,"inclination_deg":98.6671,"raan_deg":264.2952,"arg_perigee_deg":277.5689,"mean_anomaly_deg":82.4236,"bstar":6.7707e-5,"rev_number":10561,"period_min":100.57017471357,"perigee_km":777.67001178191,"apogee_km":793.53052609534,"semimajor_km":7163.7372689386,"source":"CELESTRAK","updated_at":"2026-05-25T13:38:01.676729Z"}}}